Location: Port Huron, MI 48060, USA
(42.9794°N, 82.4282°W)
Time: 21:06:32
(UTC-04:00)

ISS - Visible Passes

Search period start: 16 July 2019 00:00
Search period end: 26 July 2019 00:00
Orbit: 409 x 418 km, 51.6° (Epoch: 17 July)

Date Brightness Start Highest point End Pass type
(mag) Time Alt. Az. Time Alt. Az. Time Alt. Az.
16 Jul -2.8 00:06:02 10° WSW 00:09:16 47° NNW 00:12:30 10° NE visible
16 Jul -1.0 01:44:02 10° NW 01:46:32 19° N 01:49:02 10° NE visible
16 Jul -1.1 03:21:23 10° NW 03:24:04 22° NNE 03:26:43 10° ENE visible
16 Jul -3.6 04:57:50 10° NW 05:01:09 75° NNE 05:04:27 10° ESE visible
16 Jul -2.0 21:41:47 10° SSE 21:43:40 14° SE 21:45:33 10° E visible
16 Jul -3.7 23:16:38 10° WSW 23:19:58 76° NNW 23:23:18 10° NE visible
17 Jul -1.2 00:54:22 10° WNW 00:57:03 22° NNW 00:59:44 10° NE visible
17 Jul -0.9 02:32:05 10° NW 02:34:34 19° N 02:37:04 10° NE visible
17 Jul -2.7 04:08:37 10° NW 04:11:51 46° NNE 04:15:03 10° ESE visible
17 Jul -3.9 22:27:24 10° SW 22:30:42 64° SE 22:34:00 10° ENE visible
18 Jul -1.5 00:04:41 10° W 00:07:36 27° NNW 00:10:30 10° NE visible
18 Jul -0.8 01:42:40 10° NW 01:45:04 18° N 01:47:28 10° NE visible
18 Jul -1.9 03:19:25 10° NW 03:22:28 32° NNE 03:25:30 10° E visible
18 Jul -3.5 04:56:03 10° WNW 04:59:13 42° SW 05:02:21 10° SSE visible
18 Jul -3.2 21:38:23 10° SSW 21:41:29 36° SE 21:44:36 10° ENE visible
18 Jul -2.1 23:15:04 10° W 23:18:10 36° NNW 23:21:18 10° NE visible
19 Jul -0.9 00:53:07 10° NW 00:55:32 18° N 00:57:57 10° NE visible
19 Jul -1.4 02:30:11 10° NW 02:33:01 25° NNE 02:35:51 10° ENE visible
19 Jul -4.0 04:06:40 10° WNW 04:09:59 75° SW 04:13:17 10° SE visible
19 Jul -2.9 22:25:30 10° WSW 22:28:47 53° NNW 22:32:04 10° NE visible
20 Jul -1.0 00:03:28 10° WNW 00:06:01 20° N 00:08:33 10° NE visible
20 Jul -1.1 01:40:54 10° NW 01:43:32 21° NNE 01:46:03 10° ENE visible
20 Jul -1.7 03:17:22 10° NW 03:18:36 21° NW 03:18:36 21° NW visible
20 Jul -3.7 21:36:07 10° WSW 21:39:27 86° NW 21:42:48 10° NE visible
20 Jul -1.2 23:13:45 10° WNW 23:16:29 23° NNW 23:19:15 10° NE visible
21 Jul -1.0 00:51:33 10° NW 00:54:01 19° N 00:56:15 11° NE visible
21 Jul -1.2 02:28:07 10° NW 02:29:00 16° NW 02:29:00 16° NW visible
21 Jul -1.6 22:24:02 10° W 22:27:00 29° NNW 22:29:59 10° NE visible
22 Jul -0.9 00:02:03 10° NW 00:04:27 18° N 00:06:50 10° NE visible
22 Jul -1.3 01:38:52 10° NW 01:40:32 22° NNW 01:40:32 22° NNW visible
22 Jul -2.2 21:34:22 10° W 21:37:33 39° NNW 21:40:44 10° NE visible
22 Jul -1.0 23:12:25 10° NW 23:14:52 19° N 23:17:19 10° NE visible
23 Jul -1.5 00:49:35 10° NW 00:52:22 24° NNE 00:52:22 24° NNE visible
23 Jul -1.1 22:22:42 10° WNW 22:25:18 21° N 22:27:54 10° NE visible
24 Jul -1.3 00:00:15 10° NW 00:02:50 20° N 00:04:19 16° NE visible
24 Jul -0.8 01:36:44 10° NW 01:37:07 13° NW 01:37:07 13° NW visible
24 Jul -1.4 21:32:56 10° WNW 21:35:45 24° NNW 21:38:34 10° NE visible
24 Jul -1.1 23:10:48 10° NW 23:13:15 18° N 23:15:41 10° NE visible
25 Jul -1.5 00:47:26 10° NW 00:49:10 25° NNW 00:49:10 25° NNW visible
25 Jul -1.1 22:21:13 10° NW 22:23:38 18° N 22:26:03 10° NE visible
